Wind_Speed
11 11 12 12 13 13 14 14 15 16 16 15 16 17 18 19 20 21 21 22 23 23 23 24 25 26 26 26 26 26 26 25 25 25 25 25 25 25 25 25 25 25 25 26
10 11 11 11 12 12 13 14 15 16 16 17 18 19 19 20 21 21 22 23 24 23 23 24 24 25 26 26 26 25 24 25 25 25 25 24 24 25 25 24 25 24 25 25
9 10 10 11 11 12 13 14 15 16 17 17 18 18 19 20 21 22 23 24 23 23 23 23 24 24 24 24 24 23 23 23 23 24 24 23 23 23 23 23 23 23 23 22
9 9 9 10 11 12 13 13 15 16 17 17 17 17 19 20 21 22 22 22 21 23 23 22 23 23 22 22 22 21 22 22 22 22 22 22 22 22 21 21 20 20 20 21
9 9 9 9 10 11 11 12 13 14 15 16 16 18 19 20 20 20 20 20 21 21 21 21 21 21 21 21 22 22 21 22 22 22 21 21 20 19 19 18 18 18 18 18
8 8 8 8 9 10 10 11 12 13 14 15 16 18 18 19 18 19 19 19 19 20 19 19 20 20 20 20 20 19 19 19 19 19 19 18 18 17 17 17 16 15 15 15
5 6 6 6 7 8 9 10 11 13 14 15 16 16 17 18 18 19 19 18 18 18 18 18 18 18 18 18 17 17 17 17 16 16 15 15 15 15 14 13 13 12 11 11
3 3 4 5 6 7 8 10 11 12 13 14 15 17 18 18 19 18 18 18 17 16 16 16 15 15 15 15 14 14 14 13 13 13 12 12 11 10 10 9 9 8 8 8
2 3 3 4 5 6 8 10 12 13 14 16 17 17 18 18 17 17 17 16 15 15 14 13 13 13 13 12 11 11 10 9 10 9 9 8 7 7 7 6 6 5 4 4
3 4 4 5 6 7 9 10 12 13 15 16 17 17 17 17 16 15 15 14 13 12 11 11 11 10 10 9 9 8 8 7 7 6 6 5 4 4 4 3 3 2 2 2
5 5 5 6 7 8 10 11 13 14 16 17 17 17 16 15 14 14 13 12 11 10 9 9 8 8 7 7 7 6 5 5 4 4 3 3 2 1 1 0 1 1 2 2
5 6 6 6 7 9 10 12 13 14 15 16 16 16 15 15 14 13 13 11 10 9 8 7 6 6 5 5 4 3 3 2 3 2 3 3 3 3 3 3 3 4 4 5
6 6 6 7 8 9 10 12 13 14 15 15 16 15 15 15 14 14 13 11 11 9 8 7 6 5 5 5 4 4 4 3 4 4 4 4 4 4 4 4 5 5 5 6
6 6 7 8 9 10 11 12 13 15 15 15 15 15 15 14 14 14 14 13 11 10 9 8 7 6 5 5 5 5 4 4 4 5 5 5 5 6 6 6 6 7 7 8
6 6 7 8 8 10 11 12 13 14 15 15 15 15 15 14 14 14 14 13 12 11 10 9 9 8 7 7 7 7 6 6 6 6 6 7 8 8 8 8 8 8 9 10
6 7 8 8 9 10 11 12 13 13 15 15 15 15 15 15 15 14 14 14 13 13 12 11 10 10 9 9 9 9 8 8 8 9 9 10 10 10 10 10 10 11 12 12
7 7 8 9 9 10 11 12 12 13 14 14 15 15 15 15 14 14 14 14 14 13 13 12 12 11 10 10 11 11 11 10 11 11 11 11 11 11 11 12 13 14 14 14
7 7 7 8 9 9 10 11 12 12 13 13 14 15 15 15 14 14 14 14 14 13 13 13 13 12 12 12 12 12 11 11 12 12 12 12 13 13 14 14 15 15 15 14
7 7 7 8 9 9 10 10 11 12 12 13 13 14 14 14 14 13 13 13 13 13 13 13 13 13 13 12 12 12 12 12 12 12 13 13 14 15 15 15 15 15 15 15
6 6 7 7 8 9 9 10 10 11 12 12 12 12 13 13 13 13 13 13 13 12 12 12 12 12 12 12 12 12 12 12 13 13 13 14 14 14 14 14 15 15 15 16
5 6 6 7 8 8 9 9 10 10 11 11 11 11 12 12 12 12 12 12 12 12 12 12 11 11 12 11 11 11 12 12 13 13 13 13 13 14 14 14 14 14 15 15
5 5 6 7 7 8 8 9 9 9 9 10 10 10 10 10 11 11 11 11 11 11 11 11 11 11 10 10 10 10 11 11 11 12 12 12 13 13 13 13 13 13 13 13
5 5 6 7 7 8 8 8 8 8 8 9 9 9 9 9 9 10 10 10 10 10 10 9 9 9 9 9 9 9 10 10 10 10 11 11 11 12 12 12 12 12 12 12
6 6 7 7 7 7 7 8 8 8 7 7 7 8 8 8 8 8 8 8 8 8 8 8 8 7 7 7 7 7 8 8 8 9 9 9 9 10 10 10 10 10 10 10
8 8 8 8 8 7 7 8 8 8 7 7 6 6 6 7 6 6 7 7 6 6 6 6 5 5 5 5 5 5 5 5 5 6 6 7 7 8 8 8 8 7 7 7
10 10 10 10 9 9 9 9 9 9 8 8 7 7 6 6 6 6 6 6 6 5 5 4 3 3 3 3 2 2 2 2 2 3 4 5 5 6 5 5 5 5 5 5
12 12 12 12 11 11 11 10 10 10 10 10 9 9 8 7 7 7 6 6 6 5 5 4 3 3 2 2 1 1 1 2 2 3 4 4 5 5 5 5 5 5 5 5
Wind_Direction
260 260 262 267 268 269 273 277 283 287 288 288 288 289 289 291 294 294 293 292 290 288 286 284 282 283 284 285 283 281 280 280 281 280 279 278 277 277 276 276 275 275 273 272
265 265 265 269 271 272 274 277 285 289 289 291 291 290 291 293 295 294 292 292 290 289 286 285 285 286 286 286 284 282 282 281 282 280 280 280 278 278 277 276 275 274 274 272
271 273 273 274 277 279 282 285 287 289 291 293 294 294 294 294 294 294 294 294 292 290 290 288 287 287 286 284 282 282 283 283 283 283 282 281 280 279 279 277 277 275 275 274
275 274 276 282 283 284 287 289 290 291 293 295 296 298 298 298 297 295 295 295 294 292 289 288 287 286 284 283 282 282 283 284 284 283 282 282 281 281 280 279 277 275 275 275
274 275 278 281 286 289 292 294 296 297 299 301 301 302 300 301 300 298 298 296 294 291 290 291 291 290 286 285 282 282 283 285 285 283 280 280 281 281 281 281 280 279 277 276
275 273 278 283 288 293 298 299 303 306 307 307 305 305 306 304 304 304 301 299 297 296 293 292 292 292 290 288 285 284 285 285 285 285 282 280 280 280 281 281 282 280 278 275
277 276 284 289 294 299 303 308 311 314 315 315 314 312 310 308 307 306 305 302 299 297 296 294 292 293 292 290 287 287 287 287 287 287 286 285 284 281 281 280 279 276 274 273
305 302 307 311 308 310 315 317 317 320 320 320 321 319 316 314 312 311 310 306 305 302 300 297 294 294 296 294 292 291 291 290 292 292 291 289 286 281 280 278 274 272 270 266
11 355 340 334 331 330 328 326 326 327 327 328 329 326 323 321 319 317 315 312 310 309 308 306 304 302 300 299 298 298 298 298 299 298 297 293 288 280 272 272 269 263 254 241
27 15 9 359 354 347 343 339 337 336 336 336 335 332 331 330 328 327 324 324 323 319 316 313 310 307 306 307 308 305 303 303 304 305 303 301 298 288 279 274 265 246 236 219
23 18 11 5 358 353 348 344 343 341 341 341 340 338 339 340 340 340 339 340 339 337 333 328 324 322 315 311 311 309 308 313 315 322 332 338 338 322 293 187 139 120 150 156
26 21 17 8 359 355 353 352 352 351 349 349 349 350 351 352 352 352 352 351 351 348 345 342 341 345 346 341 338 341 346 354 3 21 42 48 65 85 96 101 97 96 111 128
33 29 20 10 2 357 357 358 359 359 360 1 3 3 1 360 2 4 5 4 3 4 4 5 6 8 11 14 26 25 26 38 48 59 69 74 80 85 93 92 95 102 110 121
35 27 19 11 3 1 1 3 5 6 8 9 11 10 9 11 13 14 15 13 15 19 22 27 28 27 28 33 40 43 50 59 66 73 79 82 85 90 94 94 99 103 108 112
25 21 18 14 9 7 7 9 11 14 16 16 17 17 20 20 21 21 23 26 29 32 36 39 43 47 53 57 59 62 66 69 73 81 86 92 94 94 96 96 100 107 112 113
23 19 18 17 16 15 15 17 17 19 20 21 23 23 24 25 27 30 32 33 36 40 43 48 54 58 64 67 67 67 70 77 81 87 94 97 96 95 95 95 99 105 108 109
20 20 20 20 19 18 19 19 19 20 21 22 24 25 26 28 31 33 35 36 39 44 49 53 56 60 65 70 73 75 77 81 84 88 93 95 95 94 94 97 100 103 106 107
17 18 21 21 20 20 18 18 18 20 22 23 26 27 29 30 32 35 37 40 44 49 52 54 58 62 66 73 76 79 82 84 85 88 91 92 94 96 97 99 101 103 106 107
10 16 21 21 22 22 19 19 20 22 24 25 26 28 30 31 34 38 41 43 47 52 55 58 62 65 69 74 78 81 84 85 87 90 93 95 97 98 99 100 102 103 105 106
8 15 20 21 20 18 18 18 19 22 24 25 27 28 30 33 36 40 43 47 50 54 57 60 64 66 70 75 79 82 84 87 90 92 96 98 99 99 100 102 104 105 105 106
7 12 14 13 12 12 12 13 14 18 21 23 25 27 29 33 37 41 46 49 52 55 57 59 63 67 68 73 80 84 86 89 91 93 97 100 100 101 103 104 106 108 108 108
1 2 1 1 3 5 7 8 10 13 17 20 23 26 29 32 36 40 44 48 50 52 55 59 63 66 68 73 80 86 89 91 93 95 97 101 103 105 106 107 108 109 111 111
342 345 347 349 352 356 360 2 4 7 11 17 22 25 28 29 31 34 38 41 44 48 51 55 58 63 67 72 80 88 93 94 95 98 102 106 108 110 112 113 113 113 114 114
323 325 329 332 334 339 345 350 352 356 360 5 12 16 20 23 25 27 28 30 34 39 44 49 53 59 66 72 79 87 94 96 99 103 108 111 114 117 119 121 122 122 122 122
314 312 310 312 314 319 324 330 335 338 341 343 346 353 0 6 9 11 13 14 17 23 30 39 47 52 59 71 80 86 91 97 108 118 122 125 127 130 132 133 133 133 133 134
305 307 307 304 302 302 304 308 314 319 321 320 319 322 328 335 339 342 346 350 354 357 3 12 24 34 43 60 76 85 96 117 138 147 151 156 156 154 155 156 158 160 163 167
299 300 301 301 297 295 294 296 300 303 306 306 303 303 302 304 308 312 316 318 322 325 328 328 328 327 321 315 293 262 239 223 211 206 206 205 205 203 203 204 205 208 211 215
Height
5783 5784 5785 5785 5786 5786 5787 5787 5787 5786 5786 5785 5784 5783 5782 5780 5778 5776 5774 5772 5770 5768 5766 5764 5762 5759 5758 5756 5755 5753 5752 5751 5749 5748 5746 5745 5744 5743 5742 5742 5741 5741 5740 5740
5780 5781 5781 5782 5782 5783 5783 5783 5782 5782 5781 5780 5779 5778 5776 5775 5773 5770 5768 5766 5764 5761 5759 5757 5754 5752 5750 5749 5747 5745 5744 5743 5742 5740 5739 5738 5737 5736 5735 5735 5734 5733 5733 5733
5777 5778 5778 5779 5779 5779 5779 5779 5778 5777 5778 5775 5774 5772 5771 5769 5767 5764 5762 5760 5757 5755 5752 5750 5748 5745 5743 5742 5740 5739 5737 5736 5735 5733 5732 5731 5730 5729 5728 5727 5727 5726 5726 5726
5775 5776 5776 5778 5776 5776 5776 5775 5774 5773 5772 5771 5770 5768 5765 5763 5761 5758 5756 5753 5751 5748 5746 5743 5741 5739 5737 5735 5734 5732 5731 5730 5728 5727 5726 5725 5723 5722 5722 5721 5720 5720 5719 5719
5772 5773 5773 5774 5773 5773 5773 5772 5771 5769 5768 5766 5765 5763 5760 5757 5755 5752 5750 5747 5745 5742 5740 5738 5735 5732 5731 5729 5728 5726 5725 5723 5722 5720 5719 5718 5717 5716 5716 5715 5714 5714 5714 5713
5770 5770 5771 5772 5771 5770 5771 5769 5768 5766 5764 5763 5761 5759 5756 5753 5749 5747 5744 5741 5739 5736 5734 5732 5729 5727 5725 5723 5722 5720 5719 5717 5716 5715 5713 5713 5712 5711 5710 5710 5709 5709 5708 5708
5768 5768 5768 5769 5768 5769 5769 5768 5765 5763 5761 5759 5756 5754 5751 5748 5744 5741 5739 5736 5733 5731 5729 5726 5724 5721 5720 5718 5716 5715 5713 5712 5711 5710 5709 5708 5707 5706 5706 5705 5705 5705 5704 5704
5767 5767 5769 5767 5767 5767 5766 5764 5762 5760 5758 5755 5752 5749 5746 5743 5740 5736 5733 5731 5728 5726 5723 5721 5718 5717 5715 5714 5712 5711 5709 5708 5707 5706 5704 5703 5703 5702 5702 5702 5702 5701 5701 5701
5768 5769 5767 5766 5765 5765 5763 5762 5760 5758 5755 5752 5749 5745 5742 5739 5735 5732 5729 5726 5724 5721 5719 5717 5715 5713 5712 5710 5709 5707 5706 5705 5704 5703 5702 5701 5700 5700 5700 5699 5699 5699 5699 5700
5767 5767 5766 5765 5764 5763 5762 5760 5758 5755 5752 5749 5746 5742 5739 5735 5732 5729 5726 5723 5720 5718 5716 5714 5712 5710 5709 5708 5707 5705 5704 5703 5702 5701 5700 5699 5699 5698 5698 5698 5698 5698 5699 5699
5767 5767 5766 5765 5764 5763 5761 5758 5756 5753 5750 5747 5743 5740 5736 5733 5729 5726 5723 5721 5718 5715 5713 5712 5710 5709 5707 5706 5705 5704 5703 5702 5701 5700 5699 5698 5698 5698 5698 5698 5698 5699 5699 5699
5768 5767 5766 5765 5764 5762 5760 5758 5755 5752 5749 5745 5742 5738 5735 5731 5728 5725 5722 5720 5717 5715 5712 5711 5709 5708 5706 5705 5704 5703 5702 5702 5701 5700 5699 5699 5699 5699 5699 5699 5699 5699 5699 5700
5768 5767 5766 5765 5764 5762 5760 5757 5754 5751 5748 5745 5741 5738 5734 5731 5728 5725 5722 5719 5717 5714 5712 5710 5709 5708 5707 5705 5704 5703 5703 5702 5702 5701 5701 5700 5700 5700 5700 5700 5700 5700 5700 5701
5769 5768 5767 5765 5764 5762 5759 5757 5754 5751 5748 5745 5741 5738 5735 5732 5729 5726 5723 5720 5718 5715 5713 5711 5710 5709 5707 5706 5706 5705 5704 5703 5703 5702 5702 5702 5702 5702 5702 5702 5702 5702 5703 5703
5770 5769 5767 5766 5764 5762 5759 5757 5754 5752 5748 5745 5742 5739 5737 5734 5731 5728 5725 5722 5719 5717 5715 5713 5711 5710 5709 5708 5707 5706 5706 5705 5705 5704 5704 5704 5704 5704 5704 5704 5704 5705 5705 5706
5771 5769 5768 5766 5764 5762 5760 5758 5755 5753 5750 5747 5744 5741 5739 5736 5733 5730 5727 5725 5722 5720 5717 5716 5714 5713 5712 5711 5710 5709 5708 5708 5708 5707 5707 5707 5707 5707 5707 5707 5707 5708 5709 5709
5772 5770 5769 5767 5765 5763 5761 5759 5757 5754 5752 5749 5746 5744 5741 5738 5735 5733 5730 5727 5725 5723 5721 5719 5718 5716 5715 5714 5713 5713 5712 5711 5711 5711 5711 5710 5710 5710 5710 5711 5711 5712 5713 5714
5772 5771 5770 5768 5766 5764 5763 5761 5758 5756 5754 5751 5748 5746 5743 5741 5738 5735 5733 5730 5728 5726 5725 5723 5721 5720 5719 5718 5717 5717 5716 5716 5715 5715 5715 5715 5715 5715 5715 5715 5716 5716 5717 5718
5773 5771 5770 5769 5767 5766 5764 5762 5760 5758 5756 5753 5751 5748 5746 5743 5741 5738 5736 5734 5732 5730 5729 5727 5726 5724 5723 5722 5722 5721 5721 5720 5720 5720 5720 5720 5720 5720 5720 5721 5721 5722 5723 5723
5773 5772 5771 5770 5768 5767 5765 5764 5762 5760 5757 5755 5753 5751 5749 5746 5744 5742 5739 5738 5736 5734 5733 5732 5730 5729 5728 5727 5726 5726 5725 5725 5725 5725 5725 5725 5725 5725 5725 5726 5727 5727 5728 5729
5774 5773 5772 5771 5769 5768 5766 5765 5763 5761 5759 5757 5755 5753 5751 5749 5747 5745 5743 5741 5740 5738 5737 5736 5735 5734 5732 5731 5731 5730 5730 5730 5730 5730 5730 5730 5730 5730 5731 5731 5732 5733 5733 5734
5774 5773 5772 5771 5770 5768 5767 5765 5764 5762 5760 5759 5757 5755 5754 5752 5750 5749 5747 5745 5744 5742 5741 5740 5739 5738 5737 5736 5735 5735 5735 5734 5734 5734 5735 5735 5735 5735 5736 5736 5737 5737 5738 5739
5774 5773 5772 5771 5770 5769 5768 5766 5765 5763 5762 5760 5759 5757 5756 5754 5753 5752 5750 5749 5747 5746 5745 5744 5743 5742 5741 5740 5740 5739 5739 5739 5739 5739 5739 5739 5740 5740 5740 5741 5741 5742 5743 5743
5774 5773 5772 5771 5770 5769 5768 5767 5765 5764 5763 5761 5760 5759 5758 5756 5755 5754 5753 5751 5750 5749 5748 5747 5746 5745 5744 5744 5743 5743 5743 5743 5743 5743 5743 5743 5744 5744 5744 5745 5745 5746 5746 5747
5773 5772 5771 5770 5770 5769 5768 5767 5765 5764 5763 5762 5761 5760 5759 5758 5756 5755 5754 5753 5752 5751 5750 5749 5749 5748 5747 5747 5746 5746 5746 5746 5746 5746 5746 5746 5747 5747 5748 5748 5749 5749 5749 5750
5771 5770 5770 5769 5768 5767 5766 5766 5765 5764 5763 5762 5761 5760 5759 5758 5757 5756 5755 5754 5753 5753 5752 5751 5750 5750 5749 5749 5749 5748 5748 5748 5748 5748 5748 5749 5749 5749 5749 5750 5750 5751 5751 5751
5769 5768 5767 5766 5766 5765 5764 5764 5763 5762 5761 5760 5759 5759 5758 5757 5756 5756 5755 5754 5754 5753 5752 5752 5751 5751 5750 5750 5750 5749 5749 5749 5749 5749 5749 5749 5750 5750 5750 5751 5751 5751 5751 5751